Time,TemperatureF,DewpointF,PressureIn,WindDirection,WindDirectionDegrees,WindSpeedMPH,WindSpeedGustMPH,Humidity,HourlyPrecipIn,Conditions,Clouds,dailyrainin,SoftwareType,DateUTC
2014-12-27 00:02:00,36.1,31.5,30.25,West,263,0.0,0.0,83,0.00,,---,0.00,VWS V14.01,2014-12-27 08:02:00,
2014-12-27 00:07:00,36.0,31.4,30.25,West,263,0.0,0.0,83,0.00,,---,0.00,VWS V14.01,2014-12-27 08:07:00,
2014-12-27 00:12:00,35.8,31.1,30.25,West,263,0.0,0.0,83,0.00,,---,0.00,VWS V14.01,2014-12-27 08:12:00,
2014-12-27 00:17:00,35.7,31.4,30.25,West,263,0.0,0.0,84,0.00,,---,0.00,VWS V14.01,2014-12-27 08:17:00,
2014-12-27 00:22:00,35.6,31.2,30.26,West,263,0.0,0.0,84,0.00,,---,0.00,VWS V14.01,2014-12-27 08:22:00,
2014-12-27 00:27:00,35.5,31.1,30.26,West,263,0.0,0.0,84,0.00,,---,0.00,VWS V14.01,2014-12-27 08:27:00,
2014-12-27 00:32:00,35.3,31.0,30.26,West,263,0.0,0.0,84,0.00,,---,0.00,VWS V14.01,2014-12-27 08:32:00,
2014-12-27 00:37:00,35.2,31.1,30.25,West,263,0.0,0.0,85,0.00,,---,0.00,VWS V14.01,2014-12-27 08:37:00,
2014-12-27 00:42:00,35.1,30.8,30.26,West,263,0.0,0.0,84,0.00,,---,0.00,VWS V14.01,2014-12-27 08:42:00,
2014-12-27 00:47:00,34.9,30.9,30.25,West,263,0.0,0.0,85,0.00,,---,0.00,VWS V14.01,2014-12-27 08:47:00,
2014-12-27 00:52:00,34.6,30.6,30.25,West,263,0.0,0.0,85,0.00,,---,0.00,VWS V14.01,2014-12-27 08:52:00,
2014-12-27 00:57:00,34.4,30.4,30.25,West,263,0.0,0.0,85,0.00,,---,0.00,VWS V14.01,2014-12-27 08:57:00,
2014-12-27 01:02:00,34.4,30.4,30.25,West,263,0.0,0.0,85,0.00,,---,0.00,VWS V14.01,2014-12-27 09:02:00,
2014-12-27 01:07:00,34.4,30.6,30.25,West,263,0.0,1.0,86,0.00,,---,0.00,VWS V14.01,2014-12-27 09:07:00,
2014-12-27 01:12:00,34.3,30.6,30.24,NNW,332,2.0,2.0,86,0.00,,---,0.00,VWS V14.01,2014-12-27 09:12:00,
2014-12-27 01:17:00,34.2,30.5,30.25,West,266,1.0,2.0,86,0.00,,---,0.00,VWS V14.01,2014-12-27 09:17:00,
2014-12-27 01:22:00,34.3,30.8,30.25,East,85,0.0,0.0,87,0.00,,---,0.00,VWS V14.01,2014-12-27 09:22:00,
2014-12-27 01:27:00,34.3,30.6,30.24,East,93,1.0,1.0,86,0.00,,---,0.00,VWS V14.01,2014-12-27 09:27:00,
2014-12-27 01:32:00,34.2,30.5,30.24,East,93,0.0,0.0,86,0.00,,---,0.00,VWS V14.01,2014-12-27 09:32:00,
2014-12-27 01:37:00,34.0,30.3,30.24,East,92,0.0,0.0,86,0.00,,---,0.00,VWS V14.01,2014-12-27 09:37:00,
2014-12-27 01:42:00,33.8,30.1,30.24,SE,126,0.0,0.0,86,0.00,,---,0.00,VWS V14.01,2014-12-27 09:42:00,
2014-12-27 01:47:00,33.6,29.9,30.25,SE,126,0.0,0.0,86,0.00,,---,0.00,VWS V14.01,2014-12-27 09:47:00,
2014-12-27 01:52:00,33.4,30.0,30.25,SE,126,0.0,0.0,87,0.00,,---,0.00,VWS V14.01,2014-12-27 09:52:00,
2014-12-27 01:57:00,33.3,29.9,30.25,SE,126,0.0,0.0,87,0.00,,---,0.00,VWS V14.01,2014-12-27 09:57:00,
2014-12-27 02:02:00,33.2,29.8,30.25,SE,126,0.0,0.0,87,0.00,,---,0.00,VWS V14.01,2014-12-27 10:02:00,
2014-12-27 02:07:00,33.2,29.8,30.25,SE,126,0.0,0.0,87,0.00,,---,0.00,VWS V14.01,2014-12-27 10:07:00,
2014-12-27 02:12:00,33.2,29.8,30.25,SE,128,0.0,0.0,87,0.00,,---,0.00,VWS V14.01,2014-12-27 10:12:00,
2014-12-27 02:17:00,33.2,29.8,30.25,SE,128,0.0,0.0,87,0.00,,---,0.00,VWS V14.01,2014-12-27 10:17:00,
2014-12-27 02:22:00,33.3,29.9,30.25,SE,128,0.0,0.0,87,0.00,,---,0.00,VWS V14.01,2014-12-27 10:22:00,
2014-12-27 02:27:00,33.3,29.9,30.25,SE,128,0.0,0.0,87,0.00,,---,0.00,VWS V14.01,2014-12-27 10:27:00,
2014-12-27 02:32:00,33.4,30.0,30.26,East,90,0.0,1.0,87,0.00,,---,0.00,VWS V14.01,2014-12-27 10:32:00,
2014-12-27 02:37:00,33.5,30.0,30.26,East,90,0.0,1.0,87,0.00,,---,0.00,VWS V14.01,2014-12-27 10:37:00,
2014-12-27 02:42:00,33.6,30.1,30.26,East,90,0.0,0.0,87,0.00,,---,0.00,VWS V14.01,2014-12-27 10:42:00,
2014-12-27 02:47:00,33.7,30.2,30.26,East,90,0.0,0.0,87,0.00,,---,0.00,VWS V14.01,2014-12-27 10:47:00,
2014-12-27 02:52:00,33.8,30.4,30.26,East,90,0.0,0.0,87,0.00,,---,0.00,VWS V14.01,2014-12-27 10:52:00,
2014-12-27 02:57:00,33.8,30.1,30.26,East,90,0.0,0.0,86,0.00,,---,0.00,VWS V14.01,2014-12-27 10:57:00,
2014-12-27 03:02:00,33.8,31.7,30.26,East,90,0.0,0.0,92,0.00,,---,0.00,VWS V14.01,2014-12-27 11:02:00,
2014-12-27 03:07:00,33.7,30.0,30.26,East,90,0.0,1.0,86,0.00,,---,0.00,VWS V14.01,2014-12-27 11:07:00,
2014-12-27 03:12:00,33.7,30.2,30.26,East,90,0.0,0.0,87,0.00,,---,0.00,VWS V14.01,2014-12-27 11:12:00,
2014-12-27 03:17:00,33.7,30.2,30.27,East,90,0.0,0.0,87,0.00,,---,0.00,VWS V14.01,2014-12-27 11:17:00,
2014-12-27 03:22:00,33.7,30.2,30.26,East,90,0.0,0.0,87,0.00,,---,0.00,VWS V14.01,2014-12-27 11:22:00,
2014-12-27 03:27:00,33.7,30.2,30.27,East,90,0.0,0.0,87,0.00,,---,0.00,VWS V14.01,2014-12-27 11:27:00,